DAL1150 KMCO-KATL

Flight info

Callsign DAL1150
Flight time N/A
Altitude 31000
Route MZULO3 LENDS OGGRE PITRW DEDDY HOTHH JJEDI4
Aircraft B763/H-SDE3FGHIM3RWXY/LB1

Departure

Time 2026-05-04 03:02
Airport Orlando International Airport (KMCO)

Arrival

Time N/A
Airport Hartsfield Jackson Atlanta International Airport (KATL)
Time Latitude Longitude Altitude Speed Heading
2026-05-04 02:29 28.43347 -81.30062 92 ft 0 kts 10°
2026-05-04 02:50 28.43338 -81.30064 92 ft 3 kts
2026-05-04 02:50 28.43320 -81.30068 92 ft 3 kts 18°
2026-05-04 02:50 28.43298 -81.30079 91 ft 3 kts 32°
2026-05-04 02:50 28.43284 -81.30092 91 ft 3 kts 64°
2026-05-04 02:51 28.43284 -81.30094 91 ft 0 kts 64°
2026-05-04 02:53 28.43285 -81.30083 91 ft 3 kts 88°
2026-05-04 02:53 28.43283 -81.30034 92 ft 8 kts 86°
2026-05-04 02:54 28.43294 -81.29974 93 ft 6 kts 72°
2026-05-04 02:54 28.43312 -81.29923 93 ft 10 kts 68°
2026-05-04 02:54 28.43335 -81.29833 93 ft 7 kts 101°
2026-05-04 02:54 28.43298 -81.29806 93 ft 9 kts 169°
2026-05-04 02:55 28.43131 -81.29802 93 ft 11 kts 179°
2026-05-04 02:55 28.43020 -81.29800 93 ft 19 kts 179°
2026-05-04 02:55 28.42886 -81.29797 93 ft 18 kts 180°
2026-05-04 02:56 28.42763 -81.29798 92 ft 17 kts 181°
2026-05-04 02:56 28.42634 -81.29796 90 ft 21 kts 180°
2026-05-04 02:56 28.42483 -81.29794 90 ft 21 kts 180°
2026-05-04 02:56 28.42444 -81.29793 90 ft 20 kts 180°
2026-05-04 02:57 28.42330 -81.29793 92 ft 17 kts 180°
2026-05-04 02:57 28.42212 -81.29791 92 ft 15 kts 179°
2026-05-04 02:57 28.42108 -81.29791 93 ft 17 kts 180°
2026-05-04 02:57 28.41975 -81.29788 93 ft 18 kts 178°
2026-05-04 02:58 28.41852 -81.29784 93 ft 17 kts 178°
2026-05-04 02:58 28.41736 -81.29785 92 ft 15 kts 180°
2026-05-04 02:58 28.41630 -81.29785 91 ft 14 kts 180°
2026-05-04 02:58 28.41532 -81.29785 90 ft 13 kts 180°
2026-05-04 02:59 28.41444 -81.29782 90 ft 11 kts 174°
2026-05-04 02:59 28.41366 -81.29773 89 ft 10 kts 173°
2026-05-04 02:59 28.41290 -81.29781 88 ft 18 kts 182°
2026-05-04 02:59 28.41143 -81.29781 87 ft 21 kts 176°
2026-05-04 03:00 28.40998 -81.29780 86 ft 20 kts 180°
2026-05-04 03:00 28.40866 -81.29776 84 ft 15 kts 176°
2026-05-04 03:00 28.40819 -81.29703 84 ft 11 kts 90°
2026-05-04 03:00 28.40822 -81.29618 84 ft 10 kts 88°
2026-05-04 03:01 28.40846 -81.29561 84 ft 6 kts 10°
2026-05-04 03:01 28.40906 -81.29561 85 ft 16 kts 360°
2026-05-04 03:01 28.41175 -81.29563 88 ft 61 kts 360°
2026-05-04 03:01 28.41761 -81.29570 90 ft 108 kts 359°
2026-05-04 03:02 28.42681 -81.29577 91 ft 155 kts 359°
2026-05-04 03:02 28.43891 -81.29572 270 ft 185 kts
2026-05-04 03:02 28.45161 -81.29323 811 ft 189 kts 31°
2026-05-04 03:02 28.46105 -81.28326 1504 ft 185 kts 56°
2026-05-04 03:03 28.46872 -81.27061 1631 ft 206 kts 57°
2026-05-04 03:03 28.47729 -81.25716 2035 ft 216 kts 55°
2026-05-04 03:03 28.48666 -81.24287 2294 ft 235 kts 54°
2026-05-04 03:03 28.49642 -81.22755 2807 ft 244 kts 57°
2026-05-04 03:04 28.50363 -81.20984 3242 ft 255 kts 77°
2026-05-04 03:04 28.50715 -81.19029 3979 ft 256 kts 77°
2026-05-04 03:04 28.51076 -81.17027 4591 ft 261 kts 83°
2026-05-04 03:04 28.51105 -81.14941 5164 ft 269 kts 91°
2026-05-04 03:05 28.51026 -81.12780 5773 ft 275 kts 91°
2026-05-04 03:05 28.50952 -81.10620 6357 ft 282 kts 91°
2026-05-04 03:05 28.50878 -81.08373 6973 ft 288 kts 92°
2026-05-04 03:05 28.50801 -81.06105 7607 ft 292 kts 92°
2026-05-04 03:06 28.50690 -81.03768 8080 ft 303 kts 97°
2026-05-04 03:06 28.50359 -81.01366 8671 ft 308 kts 100°
2026-05-04 03:06 28.50019 -80.98981 9241 ft 317 kts 99°
2026-05-04 03:06 28.49667 -80.96503 9863 ft 323 kts 100°
2026-05-04 03:07 28.49304 -80.93966 10407 ft 330 kts 101°
2026-05-04 03:07 28.48920 -80.91305 10426 ft 358 kts 100°
2026-05-04 03:07 28.48505 -80.88416 10475 ft 385 kts 100°
2026-05-04 03:07 28.48058 -80.85321 10720 ft 406 kts 100°
2026-05-04 03:08 28.47775 -80.82112 11458 ft 411 kts 90°
2026-05-04 03:08 28.48068 -80.78876 12034 ft 420 kts 81°
2026-05-04 03:08 28.48463 -80.75546 12727 ft 425 kts 84°
2026-05-04 03:08 28.48824 -80.72253 13412 ft 429 kts 84°
2026-05-04 03:09 28.49199 -80.68831 13990 ft 437 kts 84°
2026-05-04 03:09 28.49578 -80.65427 14630 ft 441 kts 84°
2026-05-04 03:09 28.49961 -80.61940 14974 ft 451 kts 84°
2026-05-04 03:09 28.50352 -80.58395 14967 ft 454 kts 85°
2026-05-04 03:10 28.50740 -80.54894 15012 ft 446 kts 84°
2026-05-04 03:10 28.51129 -80.51347 15091 ft 454 kts 84°
2026-05-04 03:10 28.51514 -80.47830 15698 ft 454 kts 84°
2026-05-04 03:10 28.51907 -80.44252 16420 ft 456 kts 85°
2026-05-04 03:11 28.52293 -80.40707 16917 ft 462 kts 84°
2026-05-04 03:11 28.52690 -80.37058 17378 ft 469 kts 84°
2026-05-04 03:11 28.53098 -80.33308 17985 ft 473 kts 85°
2026-05-04 03:11 28.53676 -80.29598 18521 ft 478 kts 77°
2026-05-04 03:12 28.54755 -80.26012 19012 ft 485 kts 67°
2026-05-04 03:12 28.56112 -80.22481 19510 ft 489 kts 68°
2026-05-04 03:12 28.57475 -80.18850 20089 ft 493 kts 66°
2026-05-04 03:12 28.58826 -80.15288 20525 ft 498 kts 67°
2026-05-04 03:13 28.60206 -80.11645 21048 ft 501 kts 67°
2026-05-04 03:13 28.61576 -80.08021 21463 ft 505 kts 67°
2026-05-04 03:13 28.62970 -80.04333 21982 ft 507 kts 67°
2026-05-04 03:13 28.64352 -80.00674 22316 ft 512 kts 67°
2026-05-04 03:14 28.65773 -79.96909 22748 ft 515 kts 67°
2026-05-04 03:14 28.67177 -79.93184 23183 ft 518 kts 67°
2026-05-04 03:14 28.67549 -79.92194 23349 ft 519 kts 66°
2026-05-04 03:14 28.68978 -79.88396 23599 ft 526 kts 67°
2026-05-04 03:15 28.70413 -79.84581 24040 ft 528 kts 67°
2026-05-04 03:15 28.71847 -79.80765 24484 ft 529 kts 66°
2026-05-04 03:15 28.73315 -79.76854 24746 ft 535 kts 66°
2026-05-04 03:15 28.74758 -79.73006 25122 ft 537 kts 67°
2026-05-04 03:16 28.76238 -79.69053 25494 ft 540 kts 67°
2026-05-04 03:16 28.77711 -79.65118 25900 ft 541 kts 67°
2026-05-04 03:16 28.79200 -79.61131 26241 ft 544 kts 68°
2026-05-04 03:16 28.80753 -79.57223 26457 ft 549 kts 61°
2026-05-04 03:17 28.82519 -79.53906 26839 ft 547 kts 53°
2026-05-04 03:17 28.82589 -79.53790 26854 ft 547 kts 53°
2026-05-04 03:17 28.82652 -79.53688 26866 ft 547 kts 53°
2026-05-04 03:17 28.83785 -79.51881 27082 ft 546 kts 53°
2026-05-04 03:18 28.85987 -79.48349 27562 ft 545 kts 53°
2026-05-04 03:18 28.88201 -79.44811 28053 ft 544 kts 53°
2026-05-04 03:18 28.90380 -79.41333 28437 ft 544 kts 52°
2026-05-04 03:18 28.92566 -79.37845 28851 ft 544 kts 53°
2026-05-04 03:19 28.94770 -79.34328 29270 ft 543 kts 53°
2026-05-04 03:19 28.96972 -79.30811 29666 ft 543 kts 53°
2026-05-04 03:19 28.99139 -79.27348 30001 ft 541 kts 53°
2026-05-04 03:19 29.01339 -79.23828 30337 ft 540 kts 53°
2026-05-04 03:20 29.03507 -79.20358 30670 ft 539 kts 53°
2026-05-04 03:20 29.05686 -79.16867 31001 ft 538 kts 54°
2026-05-04 03:20 29.07845 -79.13403 31096 ft 541 kts 53°
2026-05-04 03:21 29.12250 -79.06335 31099 ft 552 kts 54°
2026-05-04 03:21 29.16722 -78.99146 31089 ft 561 kts 53°